This is the latest recevied weather packets stored in our database for station/object EA2KR-10. If no packets are shown the sender has not sent any weather packets the latest 10 day(s).
| Time | Temp. | Humidity | Pressure | Rain* | Wind** | Luminosity | Snow |
|---|---|---|---|---|---|---|---|
| 1787999603 | 32.22° C | 30% | 1031.7 hPa | - | - | - | - |
| 1787997803 | 30.56° C | 32% | 1032 hPa | - | - | - | - |
| 1787996003 | 28.89° C | 33% | 1032.1 hPa | - | - | - | - |
| 1787994203 | 27.22° C | 34% | 1032 hPa | - | - | - | - |
| 1787992402 | 25.56° C | 35% | 1031.8 hPa | - | - | - | - |
| 1787990602 | 23.89° C | 36% | 1031.6 hPa | - | - | - | - |
| 1787988802 | 22.78° C | 37% | 1031.5 hPa | - | - | - | - |
| 1787987001 | 21.67° C | 36% | 1031.5 hPa | - | - | - | - |
| 1787985204 | 20.56° C | 36% | 1031.4 hPa | - | - | - | - |
| 1787983404 | 20.56° C | 35% | 1031.4 hPa | - | - | - | - |
| 1787981604 | 20.56° C | 35% | 1031.1 hPa | - | - | - | - |
| 1787979804 | 20.56° C | 36% | 1031 hPa | - | - | - | - |
| 1787978004 | 21.11° C | 35% | 1031 hPa | - | - | - | - |
| 1787976204 | 21.11° C | 35% | 1031 hPa | - | - | - | - |
| 1787974404 | 21.11° C | 34% | 1031.1 hPa | - | - | - | - |
| 1787972604 | 21.67° C | 34% | 1031.2 hPa | - | - | - | - |
| 1787970804 | 22.22° C | 33% | 1031.3 hPa | - | - | - | - |
| 1787969003 | 22.22° C | 32% | 1031.3 hPa | - | - | - | - |
| 1787967203 | 22.78° C | 32% | 1031.2 hPa | - | - | - | - |
| 1787965403 | 23.33° C | 31% | 1031.3 hPa | - | - | - | - |
| 1787963603 | 23.89° C | 30% | 1031.4 hPa | - | - | - | - |
| 1787961803 | 24.44° C | 30% | 1031.7 hPa | - | - | - | - |
| 1787960003 | 25° C | 29% | 1031.8 hPa | - | - | - | - |
| 1787958203 | 25.56° C | 28% | 1031.8 hPa | - | - | - | - |
| 1787956403 | 26.11° C | 28% | 1032 hPa | - | - | - | - |
* Rain since midnight (hover to see other rain measurements)
** Current wind speed in m/s (hover to see current wind gust speed)